Home   Weather   Winston-Salem   Past weeks

Flag for USA Past Weather in Winston-Salem, North Carolina, USA — Yesterday and Last 2 Weeks

Now
57 °F

Clear.


Feels Like: 57 °F
Forecast: 55 / 76 °F
Wind: No wind

Location: Smith Reynolds Airport

Current Time: Feb 24, 2017 at 1:14:20 am

Latest Report: Feb 23, 2017 at 11:54 pm


Visibility: 10 mi

Pressure: 29.91 "Hg

Humidity: 72%

Dew Point: 48 °F

Location of Winston-SalemLocation

Past Weather in Winston-Salem — Graph

°F

Winston-Salem Temperature Yesterday

Maximum temperature yesterday: 72 °F (at 2:54 pm)
Minimum temperature yesterday: 49 °F (at 5:54 am)
Average temperature yesterday: 57 °F

High & Low Weather Summary for the Past Weeks

 TemperatureHumidityPressure
High79 °F (Feb 12, 3:54 pm)100% (Feb 23, 8:31 am)30.47 "Hg (Feb 23, 8:31 am)
Low25 °F (Feb 10, 2:54 am)10% (Feb 13, 1:54 pm)29.54 "Hg (Feb 9, 2:54 am)
Average52 °F50%29.98 "Hg
* Reported Feb 8 11:54 pm — Feb 23 11:54 pm, Winston-Salem, Weather by CustomWeather, © 2017

Note: Actual official high and low records may vary slightly from our data, if they occured in-between our weather recording intervals... More about our weather records

Advertising

Winston-Salem Weather History for the Previous 24 Hours

Scroll right to see more
 ConditionsComfort  
Time TempWeatherWind HumidityBarometerVisibility
11:54 pm
Thu, Feb 23
57 °FClear.No wind72%29.91 "Hg10 mi
10:54 pm58 °FClear.3 mph70%29.90 "Hg10 mi
9:54 pm60 °FClear.No wind65%29.91 "Hg10 mi
8:54 pm64 °FClear.3 mph56%29.91 "Hg10 mi
7:54 pm66 °FOvercast.No wind50%29.90 "Hg10 mi
6:54 pm67 °FOvercast.No wind47%29.88 "Hg10 mi
5:54 pm68 °FPartly sunny.5 mph47%29.87 "Hg10 mi
4:54 pm71 °FPassing clouds.6 mph41%29.85 "Hg10 mi
3:54 pm72 °FPartly sunny.5 mph40%29.84 "Hg10 mi
2:54 pm72 °FPartly sunny.3 mph44%29.85 "Hg10 mi
1:54 pm71 °FScattered clouds.6 mph47%29.87 "Hg10 mi
12:54 pm70 °FPassing clouds.N/A49%29.90 "Hg10 mi
11:54 am67 °FSunny.6 mph61%29.93 "Hg10 mi
10:54 am64 °FSunny.5 mph70%29.95 "Hg10 mi
9:54 am61 °FSunny.5 mph78%29.96 "Hg9 mi
9:03 am54 °FFog.No wind97%29.97 "Hg3 mi
8:39 am52 °FFog.No wind97%29.97 "Hg2 mi
8:31 am51 °FFog.No wind100%29.97 "Hg1 mi
8:20 am49 °FFog.No wind93%29.97 "Hg1 mi
8:04 am49 °FFog.No wind90%29.97 "Hg2 mi
7:54 am49 °FFog.No wind93%29.96 "Hg2 mi
7:09 am49 °FFog.No wind97%29.96 "Hg2 mi
6:54 am50 °FFog.5 mph93%29.94 "Hg1 mi
6:33 am49 °FFog.3 mph93%29.94 "Hg0 mi
5:54 am49 °FFog.No wind93%29.93 "Hg0 mi
5:05 am50 °FFog.No wind96%29.94 "Hg0 mi
4:54 am51 °FFog.No wind92%29.93 "Hg1 mi
3:54 am52 °FFog.3 mph93%29.91 "Hg3 mi
3:20 am52 °FFog.3 mph97%29.92 "Hg4 mi
2:54 am51 °FFog.No wind92%29.91 "Hg1 mi
2:33 am50 °FFog.No wind96%29.93 "Hg0 mi
2:23 am52 °FFog.No wind93%29.93 "Hg0 mi
1:58 am52 °FFog.No wind93%29.93 "Hg1 mi
1:06 am53 °FFog.No wind93%29.94 "Hg3 mi
Weather by CustomWeather, © 2017

See weather overviewHow to use our weather pages